Tracking 28790 objects as of 19-Apr-2024
HD Live streaming from Space Station
objects crossing your sky now

DMSP 5D-2 F15 (USA 147)

Track DMSP 5D-2 F15 (USA 147) now!
10-day predictions
DMSP 5D-2 F15 (USA 147) is classified as:


NORAD ID: 25991
Int'l Code: 1999-067A
Perigee: 834.8 km
Apogee: 850.8 km
Inclination: 99.1 °
Period: 101.6 minutes
Semi major axis: 7213 km
RCS: Unknown
Launch date: December 12, 1999
Source: United States (US)
Launch site: AIR FORCE WESTERN TEST RANGE (AFWTR)

Near-polar orbits; investigate Earth's environment.
Your satellite tracking list
Your tracking list is empty




NASA's NSSDC Master Catalog

Two Line Element Set (TLE):
1 25991U 99067A   24109.97143128  .00000566  00000-0  30458-3 0  9998
2 25991  99.0688 124.2566 0011078  85.1215 331.7656 14.16961213258856
Source of the keplerian elements: McCants